Theta_e
294 294 294 293 293 293 292 292 291 291 291 290 290 290 290 289 289 288 288 287 287 287 287 287 287 287 286 286 286 285 285 285 285 285 285 285 284 284 284 283 283 283
294 294 294 293 293 292 292 292 292 291 291 291 290 290 290 289 289 288 288 287 287 287 287 287 287 286 286 286 286 285 285 284 284 284 285 285 284 284 284 283 283 283
294 294 293 293 293 292 292 292 291 291 291 291 290 290 289 289 289 288 288 287 287 287 286 286 286 286 286 286 286 285 285 284 284 284 284 284 284 284 284 283 283 283
294 294 294 293 293 292 292 291 291 291 291 290 290 290 289 289 288 288 288 287 287 286 286 286 286 286 286 286 285 285 284 284 284 284 284 284 284 284 283 283 283 282
294 294 293 293 292 292 292 291 291 291 290 290 290 289 289 289 288 288 287 287 286 286 286 286 286 286 286 285 285 284 284 283 283 284 284 284 284 284 283 283 282 282
294 293 293 293 292 292 291 291 291 290 290 290 289 289 289 288 288 288 287 287 286 286 285 285 285 285 285 285 284 284 283 283 283 284 284 284 283 283 283 282 282 282
293 293 293 292 292 291 291 291 291 290 290 290 289 289 289 288 288 288 287 287 286 285 285 285 285 285 284 284 283 283 283 283 283 283 283 283 283 283 282 282 281 281
293 293 292 292 291 291 291 291 290 290 290 289 289 289 288 288 288 288 287 287 286 285 285 285 285 284 284 283 283 283 283 282 283 283 283 283 283 282 282 281 281 280
292 292 292 291 291 291 291 290 290 290 289 289 289 288 288 288 288 288 287 286 286 285 285 284 284 283 283 283 283 283 283 283 282 283 283 283 283 282 282 281 281 280
292 292 291 291 291 291 290 290 290 290 289 289 288 288 288 287 287 287 286 286 286 285 285 284 283 283 282 282 282 282 283 283 282 282 282 283 283 282 282 281 281 280
292 291 291 291 291 290 290 290 289 289 289 289 288 287 287 287 286 286 286 285 285 285 284 284 283 282 282 282 282 282 282 282 282 282 282 283 283 282 282 281 280 280
291 291 291 291 290 290 290 289 289 289 288 288 287 287 286 286 286 285 285 285 285 285 284 284 283 282 282 282 282 281 282 282 282 282 282 282 282 282 281 281 280 279
291 291 291 290 290 290 289 289 288 288 288 287 287 286 286 286 285 285 285 285 285 284 284 283 283 282 281 282 282 281 281 281 281 282 282 282 282 281 280 279 279 278
291 291 291 290 290 289 289 288 288 287 287 287 286 286 286 285 285 285 285 284 284 284 284 283 282 281 281 281 281 281 281 281 281 282 281 281 281 280 279 278 277 276
291 290 290 289 289 288 288 288 287 287 286 286 286 285 285 285 285 285 284 284 283 283 283 282 281 281 282 281 281 281 281 281 281 281 281 281 280 279 278 277 276 275
291 290 289 289 288 288 288 287 286 286 286 285 285 285 284 284 284 284 284 283 283 282 281 281 281 281 281 281 281 281 281 281 281 281 280 280 279 278 276 276 275 275
290 290 289 288 288 288 287 286 286 285 285 285 284 284 284 283 283 283 283 283 282 281 281 281 281 281 281 280 280 281 281 281 281 280 279 279 278 277 276 275 274 274
290 289 288 288 287 287 286 286 285 285 284 284 283 283 283 282 282 282 282 281 281 281 281 281 281 281 280 280 280 280 281 281 281 280 279 278 277 276 275 275 274 274
289 289 288 287 287 286 285 285 284 284 284 283 283 282 282 282 281 281 281 280 280 280 280 280 281 280 279 279 280 280 280 280 280 279 278 277 276 276 275 274 274 274
289 288 287 286 286 285 285 284 284 283 283 282 282 282 281 281 281 280 280 280 280 280 279 279 280 279 279 280 280 279 279 279 278 278 277 276 276 275 275 274 274 274
288 287 286 286 285 285 284 283 283 283 282 282 281 281 281 281 280 280 280 279 279 279 279 279 279 279 279 280 280 279 278 277 277 277 276 276 275 275 274 274 274 274
287 287 286 285 285 284 283 283 282 282 282 281 281 280 280 280 279 279 279 278 278 278 278 278 278 279 279 280 281 280 279 277 277 276 276 275 275 275 274 274 274 274
287 286 285 285 284 283 283 282 282 281 281 280 280 279 279 279 278 278 278 278 277 277 277 277 278 279 280 280 280 281 280 278 277 277 276 275 275 275 275 274 274 274
287 286 285 284 283 283 282 282 281 281 280 280 280 279 278 278 278 277 277 277 277 277 277 277 278 279 280 280 280 280 280 278 277 277 276 275 275 275 274 274 273 273
286 286 285 284 283 282 282 281 281 280 279 279 279 278 278 277 277 276 276 276 276 276 276 276 277 278 280 280 280 280 279 278 277 276 276 275 275 274 274 273 273 273
286 285 284 284 283 282 281 281 280 279 279 278 278 278 277 276 276 276 275 275 275 275 275 275 277 278 279 279 279 280 279 277 276 276 275 275 274 274 273 273 273 274
Wind_Speed
41 41 41 41 41 41 41 41 42 43 44 44 45 46 46 46 45 43 41 39 36 34 31 28 26 24 23 22 21 19 17 15 13 11 9 8 7 8 8 9 9 10
43 43 42 42 42 42 42 43 43 44 45 45 45 45 45 45 45 44 43 41 38 36 33 30 28 26 25 24 22 20 18 16 14 12 10 9 9 9 9 10 10 10
46 45 45 45 45 44 43 42 42 43 43 43 43 43 44 45 45 45 44 42 40 37 34 32 30 28 27 25 23 21 19 17 15 13 12 11 10 10 10 11 11 11
47 47 48 47 45 43 42 41 41 42 42 42 42 42 42 42 43 44 44 43 41 39 36 34 32 30 28 26 24 22 20 18 16 15 14 12 12 12 12 13 12 12
48 48 47 46 44 42 41 42 43 42 41 41 41 41 41 41 42 42 43 42 41 39 37 36 34 32 30 28 26 24 22 21 19 17 16 14 13 13 14 14 13 13
46 47 47 46 43 42 42 43 43 42 41 41 40 41 41 41 42 43 43 42 41 39 38 37 36 34 32 30 28 26 24 23 21 19 17 16 15 14 15 15 15 14
46 46 45 44 42 42 43 42 42 41 41 41 41 41 42 42 42 43 43 43 41 40 39 38 37 36 34 31 30 28 26 24 22 20 18 17 16 16 16 16 15 14
45 43 42 42 42 42 42 42 42 42 41 41 41 42 42 43 43 43 43 43 42 41 40 39 38 37 35 33 31 30 27 25 23 21 20 18 18 18 17 17 16 15
43 41 41 42 42 43 43 43 42 42 42 42 42 42 42 43 44 44 43 43 43 42 41 40 38 37 35 33 32 30 28 26 24 22 21 20 19 19 18 18 17 17
41 40 40 41 43 44 44 43 43 42 42 42 42 42 42 42 43 43 44 44 43 43 41 40 39 37 35 33 31 29 27 25 24 22 21 20 20 20 19 19 18 18
40 40 41 42 44 44 44 43 42 42 42 42 42 42 42 42 42 42 43 44 44 44 42 41 39 37 35 33 31 28 26 24 23 22 21 21 20 20 19 19 19 19
40 40 42 44 45 44 43 43 42 42 42 42 42 42 41 42 43 43 44 45 45 44 43 42 40 38 36 34 31 28 26 24 23 22 21 21 20 19 19 19 18 18
41 44 46 46 45 44 43 42 42 42 42 42 42 42 42 43 43 44 45 45 45 44 43 42 40 38 36 34 31 28 27 25 24 22 22 20 19 19 18 18 19 18
44 46 45 44 43 41 40 40 41 41 41 41 42 42 43 44 45 45 45 45 45 44 43 42 40 39 36 34 31 29 28 26 24 23 22 21 20 19 19 18 19 18
43 42 40 39 39 39 39 40 41 41 41 41 42 43 44 44 45 46 45 45 44 43 43 42 40 39 37 35 33 30 29 27 25 24 23 22 21 20 19 18 18 17
38 37 37 38 39 39 40 40 40 40 41 41 42 43 43 44 45 45 45 46 45 43 42 41 41 40 38 35 33 31 29 28 26 25 24 23 21 20 19 18 17 15
35 37 38 38 39 40 40 40 40 40 41 41 41 42 42 43 44 44 45 45 44 44 43 42 41 40 37 34 32 31 30 29 28 27 25 24 22 20 19 18 16 14
36 36 37 38 38 38 39 39 39 39 40 40 41 41 42 42 43 44 44 43 42 42 43 42 42 40 37 35 33 32 31 30 29 28 26 25 23 22 20 18 15 13
36 35 36 37 37 38 38 38 38 39 40 41 40 40 41 41 42 42 42 41 42 42 42 42 41 39 37 34 32 31 31 30 29 28 27 25 24 21 19 16 15 14
35 36 36 36 36 36 37 38 39 39 39 39 39 39 40 40 41 41 41 41 41 41 41 41 40 39 36 32 29 29 30 30 28 26 25 23 20 18 16 16 16 16
35 35 35 34 35 36 37 38 38 38 38 38 39 40 41 41 41 41 41 41 40 40 40 39 39 38 33 29 27 27 27 27 26 24 22 19 17 15 16 16 16 15
35 35 34 35 36 36 37 37 38 38 38 38 38 38 38 38 38 39 40 40 39 39 39 38 38 36 30 27 27 27 26 25 24 22 21 19 18 17 18 18 17 16
34 34 34 35 36 37 37 37 36 36 36 37 37 36 36 36 36 36 37 38 38 38 38 37 37 35 29 27 27 27 27 26 25 24 23 22 21 21 20 19 18 16
33 34 35 35 36 37 36 35 35 35 36 37 38 37 36 36 36 35 36 37 38 38 38 37 37 34 28 27 27 27 28 29 27 26 25 23 22 21 20 19 16 13
32 33 33 34 35 35 35 35 34 34 35 35 36 35 34 34 35 34 34 35 36 37 36 36 37 34 28 27 27 27 28 29 28 26 26 24 22 20 18 16 14 12
31 32 34 34 35 34 33 34 34 33 34 34 34 33 33 33 34 34 34 34 35 35 34 35 37 36 30 28 28 27 27 29 29 27 26 25 22 19 18 17 14 13
Wind_Direction
211 211 212 213 214 214 213 212 211 210 210 209 209 209 209 209 208 206 205 205 204 204 204 203 202 200 199 199 200 200 201 204 206 207 209 211 212 215 220 225 231 236
212 213 213 214 215 215 215 215 214 213 213 212 212 211 210 209 208 207 206 205 203 204 203 202 201 201 200 200 200 200 200 202 205 207 210 211 212 216 221 224 228 234
212 213 214 215 216 216 215 215 215 215 215 214 213 212 211 210 208 207 207 205 204 202 201 201 200 200 201 200 200 200 201 204 205 207 209 210 211 216 220 224 226 231
213 214 215 216 217 216 215 215 215 216 215 214 213 212 211 210 208 207 206 206 204 202 200 199 200 199 199 199 199 200 202 204 204 205 207 207 210 215 219 222 226 231
214 215 216 217 216 216 215 215 216 215 214 214 213 212 211 210 208 207 205 205 204 202 200 199 199 199 198 198 199 200 200 201 201 203 206 207 209 213 218 221 225 232
216 216 216 216 216 215 216 216 217 215 214 214 212 212 211 210 209 208 206 205 204 203 201 199 198 197 197 198 199 200 201 200 199 201 204 205 207 210 216 220 224 230
217 217 216 215 215 215 216 217 217 216 215 214 212 212 211 210 209 209 207 205 204 203 203 201 199 198 198 198 199 199 200 200 199 200 202 202 204 208 212 217 223 228
217 217 215 214 214 215 216 216 217 216 215 213 212 212 211 210 209 208 206 205 203 203 203 203 202 200 199 199 199 199 198 198 198 198 200 200 202 206 210 215 222 228
216 216 214 213 213 214 215 215 216 215 214 213 212 211 210 209 209 207 205 204 203 203 203 204 203 202 202 201 200 199 198 198 198 198 200 200 202 206 210 215 221 228
215 214 213 212 213 214 214 214 214 214 213 213 211 210 208 207 207 206 204 202 202 202 203 203 204 203 203 203 202 201 200 199 198 198 200 202 205 209 211 217 222 227
214 213 212 213 213 213 213 213 212 212 211 211 209 208 206 205 203 203 202 201 201 202 203 203 204 204 204 204 203 202 201 200 199 199 202 204 207 210 214 219 224 229
212 211 213 214 213 213 212 211 210 209 209 208 206 205 203 202 201 201 202 202 202 203 203 204 205 205 205 204 202 200 200 200 200 201 203 205 208 212 216 222 226 230
212 212 214 214 213 212 211 209 208 207 206 205 204 203 201 200 200 200 201 202 202 203 204 205 205 204 204 204 202 201 199 199 199 200 203 205 209 214 218 224 230 232
214 214 214 213 212 211 209 207 206 205 204 203 202 201 200 200 199 199 200 201 202 204 204 204 204 202 203 202 202 201 199 198 199 199 202 204 208 216 220 225 231 232
215 214 213 211 210 208 206 205 204 203 202 201 201 200 200 200 200 200 199 199 201 203 203 203 202 202 203 203 201 200 198 198 199 199 202 205 207 213 220 224 229 232
213 210 209 208 207 206 205 203 202 200 199 199 199 199 199 198 198 198 199 199 199 200 200 201 202 203 204 204 203 201 199 197 197 199 201 204 207 209 215 221 225 230
209 207 206 205 205 204 202 200 199 198 197 197 197 197 197 197 196 196 197 199 198 198 199 200 201 203 203 203 203 202 201 198 196 197 199 201 205 206 210 217 220 227
206 204 202 202 202 201 199 198 196 195 195 195 195 195 195 195 196 196 197 197 198 198 199 200 202 203 202 201 201 200 201 200 196 196 197 199 202 205 208 213 216 219
203 200 199 200 199 198 197 195 194 194 194 194 194 194 194 194 195 196 196 196 198 198 200 201 202 202 200 198 198 198 199 199 197 197 198 198 200 204 207 209 210 210
200 199 198 198 196 195 194 193 193 194 194 193 193 192 193 194 194 195 196 197 198 199 200 201 202 201 197 193 192 193 197 198 197 195 196 198 199 202 207 210 210 209
198 197 195 194 193 192 192 192 193 193 192 192 192 192 194 195 195 195 196 196 198 199 199 201 202 198 193 191 187 187 191 194 192 192 193 196 200 203 210 211 208 211
197 195 193 191 190 189 191 192 192 192 191 191 191 192 194 195 195 195 196 196 197 198 198 200 201 195 190 189 187 184 185 189 190 192 193 194 198 201 204 208 214 223
197 194 191 190 189 189 190 191 191 190 190 189 189 190 192 193 194 194 195 196 196 196 198 199 197 192 187 187 186 183 184 188 191 192 191 193 198 201 206 214 224 231
198 195 193 190 189 190 190 189 189 189 190 190 189 190 191 192 193 193 194 196 196 197 199 199 195 189 186 187 186 184 185 188 190 190 190 194 198 202 213 222 225 227
198 196 195 192 191 191 190 189 188 188 188 190 190 190 191 190 191 191 191 194 197 197 198 199 193 186 184 187 185 185 189 190 190 189 190 194 198 202 212 220 220 223
198 197 197 195 193 192 189 188 187 186 185 187 188 189 189 188 189 190 191 193 196 196 197 198 193 185 183 187 185 185 191 192 190 190 191 192 196 200 205 211 217 222